User: anonymous   Login
Location: Unspecified
(0.0000°N, 0.0000°E)
Time: 17:10:50
(UTC+00:00)
Language:

COSMOS 2451 - Orbit

View from above orbital plane
View from above orbital plane
View from above satellite
View from above satellite

Ground track
Ground track

The orbit data is extracted from the following two-line orbital elements,

1 35498U 09036A   19017.45740676  .00000037  00000-0  20288-3 0  9997
2 35498  82.4904 332.4049 0006968 344.5454  15.5422 12.40818027431887
Epoch (UTC): 17 January 2019 10:58:39
Eccentricity: 0.0006968
inclination: 82.4904°
perigee height: 1497 km
apogee height: 1508 km
right ascension of ascending node: 332.4049°
argument of perigee: 344.5454°
revolutions per day: 12.40818027
mean anomaly at epoch: 15.5422°
orbit number at epoch: 43188

The dashed part of the orbit path shows where the satellite is in the earth's shadow,  

DLR